Home > Weather > Sanandaj > Past weeks

Flag for Iran Weather for the Past 2 Weeks in Sanandaj, Iran

Now
50 °F

Sunny.


Feels Like: 50 °F
Forecast: 21 / 53 °F
Wind: 2 mph from North

Location: Sanandaj Airport

Current Time: Feb 13, 2016 at 5:05:50 PM

Latest Report: Feb 13, 2016 at 4:21 PM


Visibility: 10 mi

Pressure: 30.12 "Hg (25.13 "Hg at 1502m altitude)

Humidity: 35%

Dew point: 23 °F

Location of SanandajLocation

Historic Weather in Sanandaj — Graph

°F

Sanandaj Temperature Yesterday

Maximum temperature yesterday: 45 °F (at 3:21 PM)
Minimum temperature yesterday: 19 °F (at 6:21 AM)
Average temperature yesterday: 31 °F

High & Low Weather Summary for the Past Weeks

 TemperatureHumidityPressure
High63 °F (Feb 5, 3:26 PM)100% (Feb 7, 7:23 PM)30.42 "Hg (Feb 7, 7:23 PM)
Low14 °F (Feb 10, 6:22 AM)10% (Feb 6, 12:28 PM)29.83 "Hg (Feb 7, 3:00 PM)
Average35 °F66%30.19 "Hg
* Reported Jan 29 2:30 PM — Feb 13 3:21 PM, Sanandaj, Weather by CustomWeather, © 2016

Note: Actual official high and low records may vary slightly from our data, if they occured in-between our weather recording intervals... More about our weather records

Advertising

Sanandaj Weather History for the Previous 24 Hours

 ConditionsComfort  
Time TempWeatherWind HumidityBarometerVisibility
3:21 PM
Sat, Feb 13
52 °FSunny.2 mph35%30.15 "Hg10 mi
2:30 PM50 °FSunny.5 mph43%30.15 "Hg10 mi
1:30 PM45 °FSunny.2 mph49%30.18 "Hg10 mi
12:30 PM41 °FSunny.2 mph53%30.21 "Hg10 mi
12:00 PM41 °FSunny.2 mph53%30.21 "Hg10 mi
11:30 AM39 °FSunny.2 mph52%30.24 "Hg10 mi
11:00 AM37 °FSunny.2 mph56%30.24 "Hg10 mi
10:30 AM36 °FSunny.No wind56%30.24 "Hg10 mi
10:00 AM34 °FSunny.No wind60%30.24 "Hg10 mi
9:30 AM32 °FSunny.2 mph69%30.24 "Hg10 mi
8:30 AM27 °FSunny.No wind86%30.24 "Hg10 mi
7:30 AM23 °FClear.2 mph86%30.21 "Hg10 mi
6:21 AM23 °FClear.No wind93%30.21 "Hg10 mi
5:21 AM23 °FClear.No wind93%30.21 "Hg10 mi
4:20 AM23 °FClear.No wind93%30.18 "Hg10 mi
3:20 AM27 °FClear.2 mph86%30.18 "Hg10 mi
2:20 AM28 °FClear.2 mph86%30.21 "Hg10 mi
1:21 AM28 °FClear.2 mph86%30.21 "Hg10 mi
12:22 AM28 °FClear.2 mph86%30.21 "Hg10 mi
11:23 PM
Fri, Feb 12
32 °FClear.5 mph75%30.21 "Hg10 mi
10:21 PM34 °FClear.2 mph70%30.21 "Hg10 mi
9:22 PM34 °FClear.5 mph70%30.21 "Hg10 mi
8:20 PM36 °FClear.No wind70%30.18 "Hg10 mi
7:20 PM36 °FClear.No wind65%30.18 "Hg10 mi
6:22 PM39 °FSunny.2 mph56%30.15 "Hg10 mi
5:22 PM45 °FSunny.2 mph37%30.15 "Hg10 mi
Weather by CustomWeather, © 2016

See weather overviewHow to use our weather pages